When you browse on this site, cookies collect data to enhance your experience and personalize the content and advertising you see.
Visit our Privacy Policy to learn more. By continuing to use the site, you agree to this use of cookies and data.
EN

Hourly Weather Demidovka

Today, 13 July, Monday

Time Temperature Precipitation Wind Pressure Humidity
00:00 +19°C° 0 mm 3 mps 753 mmHg 86%
01:00 +19°C° 0 mm 3 mps 753 mmHg 87%
02:00 +19°C° 0 mm 3 mps 753 mmHg 88%
03:00 +19°C° 0 mm 3 mps 753 mmHg 89%
04:00 +20°C° 0.1 mm 4 mps 753 mmHg 89%
05:00 +20°C° 0.1 mm 4 mps 752 mmHg 89%
06:00 +21°C° 0.1 mm 5 mps 752 mmHg 89%
07:00 +23°C° 0 mm 4 mps 752 mmHg 86%
08:00 +25°C° 0 mm 4 mps 752 mmHg 84%
09:00 +27°C° 0 mm 4 mps 752 mmHg 81%
10:00 +28°C° 0 mm 4 mps 752 mmHg 76%
11:00 +29°C° 0 mm 3 mps 751 mmHg 72%
12:00 +31°C° 0 mm 2 mps 751 mmHg 67%
13:00 +31°C° 0.1 mm 2 mps 751 mmHg 64%
14:00 +32°C° 0.1 mm 2 mps 751 mmHg 62%
15:00 +34°C° 0.1 mm 3 mps 751 mmHg 59%
16:00 +33°C° 0 mm 3 mps 750 mmHg 64%
17:00 +31°C° 0 mm 3 mps 750 mmHg 70%
18:00 +30°C° 0 mm 3 mps 749 mmHg 75%
19:00 +29°C° 0 mm 3 mps 749 mmHg 80%
20:00 +27°C° 0 mm 3 mps 750 mmHg 85%
21:00 +26°C° 0 mm 3 mps 750 mmHg 90%
22:00 +26°C° 0 mm 3 mps 750 mmHg 89%
23:00 +25°C° 0 mm 2 mps 749 mmHg 88%

Tomorrow, 14 July, Tuesday

Time Temperature Precipitation Wind Pressure Humidity
00:00 +24°C° 0 mm 2 mps 749 mmHg 87%
01:00 +24°C° 0 mm 2 mps 750 mmHg 86%
02:00 +24°C° 0 mm 2 mps 750 mmHg 84%
03:00 +23°C° 0 mm 2 mps 750 mmHg 83%
04:00 +24°C° 0 mm 3 mps 750 mmHg 81%
05:00 +24°C° 0 mm 3 mps 750 mmHg 80%
06:00 +25°C° 0 mm 3 mps 750 mmHg 78%
07:00 +26°C° 0 mm 4 mps 750 mmHg 75%
08:00 +27°C° 0 mm 5 mps 750 mmHg 71%
09:00 +28°C° 0 mm 5 mps 750 mmHg 68%
10:00 +29°C° 0 mm 5 mps 750 mmHg 66%
11:00 +30°C° 0 mm 6 mps 750 mmHg 64%
12:00 +33°C° 0 mm 6 mps 750 mmHg 62%
13:00 +33°C° 0 mm 6 mps 750 mmHg 62%
14:00 +34°C° 0 mm 6 mps 750 mmHg 62%
15:00 +34°C° 0 mm 6 mps 750 mmHg 62%
16:00 +33°C° 0 mm 5 mps 750 mmHg 64%
17:00 +32°C° 0 mm 5 mps 750 mmHg 66%
18:00 +30°C° 0 mm 5 mps 750 mmHg 68%
19:00 +29°C° 0 mm 5 mps 750 mmHg 67%
20:00 +29°C° 0 mm 6 mps 750 mmHg 65%
21:00 +28°C° 0 mm 6 mps 750 mmHg 63%
22:00 +27°C° 0 mm 6 mps 750 mmHg 59%
23:00 +27°C° 0 mm 6 mps 750 mmHg 54%

Day after tomorrow, 15 July, Wednesday

Time Temperature Precipitation Wind Pressure Humidity
00:00 +27°C° 0 mm 6 mps 750 mmHg 50%
01:00 +26°C° 0 mm 6 mps 750 mmHg 52%
02:00 +25°C° 0 mm 5 mps 750 mmHg 55%
03:00 +23°C° 0 mm 5 mps 750 mmHg 57%
04:00 +22°C° 0.2 mm 5 mps 749 mmHg 64%
05:00 +22°C° 0.2 mm 5 mps 749 mmHg 71%
06:00 +21°C° 0.2 mm 5 mps 749 mmHg 78%
07:00 +23°C° 0 mm 5 mps 749 mmHg 74%
08:00 +25°C° 0 mm 5 mps 749 mmHg 71%
09:00 +27°C° 0 mm 6 mps 749 mmHg 67%
10:00 +27°C° 0 mm 5 mps 749 mmHg 67%
11:00 +28°C° 0 mm 4 mps 749 mmHg 66%
12:00 +28°C° 0 mm 3 mps 749 mmHg 65%
13:00 +28°C° 0 mm 3 mps 749 mmHg 67%
14:00 +27°C° 0 mm 3 mps 749 mmHg 70%
15:00 +26°C° 0 mm 2 mps 749 mmHg 72%
16:00 +26°C° 0 mm 2 mps 749 mmHg 73%
17:00 +27°C° 0 mm 2 mps 749 mmHg 75%
18:00 +27°C° 0 mm 3 mps 748 mmHg 76%
19:00 +26°C° 0 mm 2 mps 748 mmHg 79%
20:00 +25°C° 0 mm 2 mps 748 mmHg 82%
21:00 +24°C° 0 mm 1 mps 748 mmHg 84%
22:00 +23°C° 0 mm 2 mps 748 mmHg 84%
23:00 +23°C° 0 mm 2 mps 748 mmHg 83%

16 July, Thursday

Time Temperature Precipitation Wind Pressure Humidity
00:00 +22°C° 0 mm 3 mps 748 mmHg 83%
01:00 +21°C° 0 mm 3 mps 748 mmHg 84%
02:00 +20°C° 0 mm 3 mps 748 mmHg 85%
03:00 +20°C° 0 mm 3 mps 748 mmHg 86%
04:00 +20°C° 0 mm 4 mps 748 mmHg 85%
05:00 +20°C° 0 mm 4 mps 748 mmHg 84%
06:00 +20°C° 0 mm 4 mps 748 mmHg 83%
07:00 +21°C° 0 mm 4 mps 748 mmHg 78%
08:00 +22°C° 0 mm 5 mps 748 mmHg 74%
09:00 +22°C° 0 mm 5 mps 749 mmHg 70%
10:00 +23°C° 0 mm 5 mps 749 mmHg 66%
11:00 +23°C° 0 mm 5 mps 749 mmHg 62%
12:00 +25°C° 0 mm 5 mps 749 mmHg 58%
13:00 +25°C° 0 mm 5 mps 749 mmHg 56%
14:00 +25°C° 0 mm 4 mps 749 mmHg 55%
15:00 +25°C° 0 mm 4 mps 749 mmHg 54%
16:00 +25°C° 0 mm 3 mps 749 mmHg 59%
17:00 +24°C° 0 mm 3 mps 749 mmHg 63%
18:00 +24°C° 0 mm 3 mps 749 mmHg 68%
19:00 +21°C° 0 mm 3 mps 749 mmHg 70%
20:00 +20°C° 0 mm 3 mps 749 mmHg 72%
21:00 +18°C° 0 mm 3 mps 749 mmHg 75%
22:00 +18°C° 0 mm 3 mps 749 mmHg 75%
23:00 +17°C° 0 mm 2 mps 750 mmHg 76%

17 July, Friday

Time Temperature Precipitation Wind Pressure Humidity
00:00 +17°C° 0 mm 2 mps 750 mmHg 77%
01:00 +17°C° 0 mm 2 mps 750 mmHg 78%
02:00 +16°C° 0 mm 2 mps 749 mmHg 80%
03:00 +16°C° 0 mm 2 mps 749 mmHg 81%
04:00 +17°C° 0 mm 2 mps 749 mmHg 81%
05:00 +17°C° 0 mm 2 mps 749 mmHg 81%
06:00 +18°C° 0 mm 2 mps 749 mmHg 81%
07:00 +19°C° 0 mm 2 mps 749 mmHg 76%
08:00 +20°C° 0 mm 2 mps 749 mmHg 71%
09:00 +22°C° 0 mm 3 mps 749 mmHg 66%
10:00 +22°C° 0 mm 3 mps 749 mmHg 62%
11:00 +24°C° 0 mm 3 mps 749 mmHg 59%
12:00 +25°C° 0 mm 3 mps 749 mmHg 56%
13:00 +25°C° 0 mm 2 mps 749 mmHg 55%
14:00 +25°C° 0 mm 2 mps 749 mmHg 54%
15:00 +25°C° 0 mm 1 mps 749 mmHg 54%
16:00 +25°C° 0 mm 1 mps 749 mmHg 58%
17:00 +24°C° 0 mm 2 mps 749 mmHg 63%
18:00 +24°C° 0 mm 2 mps 749 mmHg 68%
19:00 +21°C° 0 mm 2 mps 748 mmHg 72%
20:00 +21°C° 0 mm 1 mps 748 mmHg 77%
21:00 +19°C° 0 mm 1 mps 748 mmHg 81%
22:00 +18°C° 0 mm 1 mps 749 mmHg 83%
23:00 +18°C° 0 mm 1 mps 749 mmHg 84%

18 July, Saturday

Time Temperature Precipitation Wind Pressure Humidity
00:00 +18°C° 0 mm 1 mps 749 mmHg 86%
01:00 +16°C° 0 mm 1 mps 749 mmHg 87%
02:00 +16°C° 0 mm 1 mps 749 mmHg 88%
03:00 +16°C° 0 mm 2 mps 749 mmHg 89%
04:00 +17°C° 0 mm 2 mps 749 mmHg 87%
05:00 +17°C° 0 mm 2 mps 749 mmHg 86%
06:00 +18°C° 0 mm 2 mps 749 mmHg 84%
07:00 +19°C° 0 mm 2 mps 749 mmHg 80%
08:00 +20°C° 0 mm 2 mps 749 mmHg 76%
09:00 +21°C° 0 mm 3 mps 749 mmHg 72%
10:00 +22°C° 0.2 mm 3 mps 749 mmHg 70%
11:00 +22°C° 0.2 mm 3 mps 749 mmHg 69%
12:00 +23°C° 0.2 mm 4 mps 749 mmHg 67%
13:00 +23°C° 0.2 mm 4 mps 748 mmHg 67%
14:00 +23°C° 0.2 mm 5 mps 748 mmHg 67%
15:00 +23°C° 0.2 mm 5 mps 748 mmHg 67%
16:00 +22°C° 0.2 mm 5 mps 748 mmHg 71%
17:00 +22°C° 0.2 mm 5 mps 748 mmHg 75%
18:00 +21°C° 0.2 mm 5 mps 748 mmHg 79%
19:00 +20°C° 0 mm 5 mps 748 mmHg 83%
20:00 +18°C° 0 mm 4 mps 749 mmHg 86%
21:00 +17°C° 0 mm 4 mps 749 mmHg 89%
22:00 +17°C° 0 mm 4 mps 749 mmHg 90%
23:00 +15°C° 0 mm 4 mps 749 mmHg 92%
Show more